Weather History for Robinson, IL

Change the Weather History Date:

Monday, November 21, 2011

  Actual Average (KLWV) Record (KLWV)
Temperature  
Mean Temperature 46 °F 44 °F  
Max Temperature 48 °F 53 °F 71 °F (1992)
Min Temperature 44 °F 35 °F 16 °F (2014)
Degree Days  
Heating Degree Days 19 21  
Month to date heating degree days 352  
Since 1 July heating degree days 649  
Cooling Degree Days 0 0  
Month to date cooling degree days 0  
Year to date cooling degree days 1386  
Moisture  
Dew Point 45 °F    
Average Humidity 96    
Maximum Humidity 100    
Minimum Humidity 87    
Precipitation  
Precipitation 0.00 in 0.14 in 0.88 in (1973)
Month to date precipitation 2.70  
Year to date precipitation 39.22  
Sea Level Pressure  
Sea Level Pressure 30.16 in    
Wind  
Wind Speed 6 mph (NNE)    
Max Wind Speed 9 mph    
Max Gust Speed -    
Visibility 4 miles    
Events Rain    
T = Trace of Precipitation, MM = Missing Value Source: NWS Daily Summary

Daily Weather History Graph

Daily Weather History Graph

Search for Another Location

Airport:

Trip Planner

Search our weather history database for the weather conditions in past years. The results will help you decide how hot, cold, wet, or windy it might be!

Date:

Astronomy

Nov. 21, 2011 Rise Set
Actual Time 6:39 AM CST 4:32 PM CST
Civil Twilight 6:10 AM CST 5:01 PM CST
Nautical Twilight 5:38 AM CST 5:34 PM CST
Astronomical Twilight 5:06 AM CST 6:05 PM CST
Moon 2:19 AM CST (11/21) 1:53 PM CST (11/21)
Length of Visible Light 10h 50m
Length of Day
9h 52m
Waning Crescent, 17% of the Moon is Illuminated
Nov 21
Waning Crescent
Nov 25
New
Dec 2
First Quarter
Dec 10
Full
Dec 17
Last Quarter

Hourly Weather History & Observations

Time (CST) Temp. Windchill Dew Point Humidity Pressure Visibility Wind Dir Wind Speed Gust Speed Precip Events Conditions
12:55 AM 44.6 °F 39.7 °F 41.0 °F 87% 30.19 in 10.0 mi NNE 9.2 mph - N/A   Overcast
1:15 AM 44.6 °F 39.7 °F 41.0 °F 87% 30.18 in 10.0 mi NNE 9.2 mph - N/A   Overcast
1:35 AM 44.6 °F 40.2 °F 41.0 °F 87% 30.17 in 10.0 mi NNE 8.1 mph - N/A   Overcast
2:15 AM 44.6 °F 41.4 °F 42.8 °F 93% 30.18 in 10.0 mi NNE 5.8 mph - N/A   Overcast
2:35 AM 44.6 °F 43.1 °F 42.8 °F 93% 30.19 in 7.0 mi NNE 3.5 mph - N/A Rain Light Rain
2:55 AM 44.6 °F 43.1 °F 42.8 °F 93% 30.19 in 7.0 mi NNE 3.5 mph - N/A   Light Drizzle
3:15 AM 44.6 °F 41.4 °F 42.8 °F 93% 30.17 in 5.0 mi NNE 5.8 mph - N/A   Overcast
3:35 AM 44.6 °F 42.2 °F 42.8 °F 93% 30.18 in 7.0 mi North 4.6 mph - N/A   Overcast
3:55 AM 44.6 °F 42.2 °F 42.8 °F 93% 30.18 in 10.0 mi North 4.6 mph - N/A   Overcast
4:35 AM 44.6 °F 42.2 °F 42.8 °F 93% 30.19 in 10.0 mi NNE 4.6 mph - N/A   Overcast
4:55 AM 44.6 °F 42.2 °F 42.8 °F 93% 30.19 in 10.0 mi North 4.6 mph - N/A   Overcast
5:15 AM 44.6 °F 42.2 °F 42.8 °F 93% 30.19 in 10.0 mi NNE 4.6 mph - N/A   Overcast
5:35 AM 44.6 °F 41.4 °F 42.8 °F 93% 30.18 in 10.0 mi NNE 5.8 mph - N/A   Overcast
5:55 AM 44.6 °F 42.2 °F 42.8 °F 93% 30.19 in 10.0 mi NNE 4.6 mph - N/A   Overcast
6:15 AM 44.6 °F 42.2 °F 42.8 °F 93% 30.20 in 10.0 mi NNE 4.6 mph - N/A   Overcast
6:35 AM 44.6 °F 42.2 °F 42.8 °F 93% 30.20 in 7.0 mi NNE 4.6 mph - N/A   Overcast
6:55 AM 44.6 °F 41.4 °F 42.8 °F 93% 30.21 in 7.0 mi North 5.8 mph - N/A   Overcast
7:15 AM 44.6 °F 41.4 °F 42.8 °F 93% 30.21 in 2.5 mi North 5.8 mph - N/A Rain Light Rain
7:35 AM 44.6 °F 40.7 °F 42.8 °F 93% 30.21 in 1.5 mi North 6.9 mph - N/A   Overcast
7:55 AM 44.6 °F 41.4 °F 44.6 °F 100% 30.21 in 1.8 mi NNE 5.8 mph - N/A   Overcast
8:15 AM 44.6 °F 40.2 °F 44.6 °F 100% 30.21 in 2.0 mi North 8.1 mph - N/A   Overcast
8:55 AM 44.6 °F 42.2 °F 44.6 °F 100% 30.21 in 1.5 mi NNE 4.6 mph - N/A   Overcast
9:15 AM 44.6 °F 41.4 °F 44.6 °F 100% 30.22 in 1.0 mi NE 5.8 mph - N/A   Overcast
9:35 AM 46.4 °F 43.5 °F 44.6 °F 93% 30.22 in 1.0 mi NE 5.8 mph - N/A   Overcast
9:55 AM 46.4 °F 43.5 °F 44.6 °F 93% 30.21 in 1.0 mi NE 5.8 mph - N/A   Overcast
10:15 AM 46.4 °F 44.3 °F 44.6 °F 93% 30.21 in 1.2 mi NE 4.6 mph - N/A   Overcast
10:35 AM 46.4 °F 44.3 °F 44.6 °F 93% 30.20 in 1.2 mi ENE 4.6 mph - N/A   Overcast
10:55 AM 46.4 °F 43.5 °F 44.6 °F 93% 30.20 in 1.2 mi NE 5.8 mph - N/A   Overcast
11:15 AM 46.4 °F 43.5 °F 46.4 °F 100% 30.19 in 1.2 mi NE 5.8 mph - N/A   Overcast
11:35 AM 46.4 °F 42.9 °F 46.4 °F 100% 30.18 in 1.8 mi NNE 6.9 mph - N/A   Overcast
11:55 AM 46.4 °F 44.3 °F 46.4 °F 100% 30.18 in 1.8 mi North 4.6 mph - N/A   Overcast
12:15 PM 46.4 °F 43.5 °F 46.4 °F 100% 30.16 in 2.5 mi NNE 5.8 mph - N/A   Overcast
12:35 PM 46.4 °F 44.3 °F 46.4 °F 100% 30.16 in 2.5 mi NE 4.6 mph - N/A   Overcast
12:55 PM 46.4 °F 43.5 °F 46.4 °F 100% 30.16 in 2.5 mi North 5.8 mph - N/A   Overcast
1:15 PM 48.2 °F - 46.4 °F 93% 30.15 in 2.5 mi NE 5.8 mph - N/A   Overcast
1:55 PM 48.2 °F - 46.4 °F 93% 30.15 in 2.0 mi Calm Calm - N/A   Overcast
2:15 PM 48.2 °F - 46.4 °F 93% 30.14 in 1.2 mi NE 4.6 mph - N/A   Overcast
2:35 PM 48.2 °F - 46.4 °F 93% 30.14 in 1.8 mi NNE 4.6 mph - N/A   Overcast
3:15 PM 46.4 °F 44.3 °F 46.4 °F 100% 30.14 in 2.5 mi NNE 4.6 mph - N/A   Overcast
3:55 PM 46.4 °F 43.5 °F 46.4 °F 100% 30.13 in 2.0 mi North 5.8 mph - N/A   Overcast
4:15 PM 46.4 °F 44.3 °F 46.4 °F 100% 30.14 in 2.0 mi NNE 4.6 mph - N/A   Overcast
4:35 PM 46.4 °F 44.3 °F 46.4 °F 100% 30.14 in 4.0 mi NNE 4.6 mph - N/A   Overcast
4:55 PM 46.4 °F 44.3 °F 46.4 °F 100% 30.14 in 2.5 mi NNE 4.6 mph - N/A   Overcast
5:35 PM 46.4 °F 43.5 °F 46.4 °F 100% 30.13 in 2.0 mi NNE 5.8 mph - N/A   Overcast
5:55 PM 46.4 °F 42.9 °F 46.4 °F 100% 30.13 in 1.5 mi NNE 6.9 mph - N/A   Overcast
6:15 PM 46.4 °F 43.5 °F 46.4 °F 100% 30.13 in 2.5 mi NE 5.8 mph - N/A   Overcast
6:35 PM 46.4 °F 43.5 °F 46.4 °F 100% 30.14 in 2.0 mi NE 5.8 mph - N/A   Overcast
6:55 PM 46.4 °F 42.4 °F 46.4 °F 100% 30.13 in 2.0 mi NE 8.1 mph - N/A   Overcast
7:15 PM 46.4 °F 42.9 °F 46.4 °F 100% 30.12 in 2.5 mi NE 6.9 mph - N/A   Overcast
7:35 PM 46.4 °F 43.5 °F 46.4 °F 100% 30.12 in 3.0 mi NE 5.8 mph - N/A   Overcast
7:55 PM 46.4 °F 44.3 °F 46.4 °F 100% 30.12 in 3.0 mi NNE 4.6 mph - N/A   Overcast
8:15 PM 46.4 °F 43.5 °F 46.4 °F 100% 30.11 in 2.5 mi NE 5.8 mph - N/A   Overcast
8:35 PM 46.4 °F 45.2 °F 46.4 °F 100% 30.13 in 2.0 mi NNE 3.5 mph - N/A   Overcast
8:55 PM 46.4 °F 43.5 °F 46.4 °F 100% 30.12 in 1.8 mi NE 5.8 mph - N/A   Overcast
9:15 PM 46.4 °F 44.3 °F 46.4 °F 100% 30.12 in 1.5 mi NE 4.6 mph - N/A   Overcast
9:35 PM 46.4 °F 43.5 °F 46.4 °F 100% 30.10 in 1.2 mi NE 5.8 mph - N/A   Overcast
9:55 PM 48.2 °F - 46.4 °F 93% 30.11 in 1.5 mi NE 5.8 mph - N/A   Overcast
10:15 PM 48.2 °F - 46.4 °F 93% 30.11 in 1.5 mi NE 5.8 mph - N/A Rain Light Rain
10:35 PM 48.2 °F - 46.4 °F 93% 30.11 in 1.8 mi NNE 5.8 mph - N/A   Drizzle
10:55 PM 48.2 °F - 46.4 °F 93% 30.11 in 2.0 mi NNE 4.6 mph - N/A   Light Drizzle
11:35 PM 46.4 °F 44.3 °F 46.4 °F 100% 30.11 in 3.0 mi NNE 4.6 mph - N/A   Overcast
11:55 PM 46.4 °F 43.5 °F 46.4 °F 100% 30.11 in 4.0 mi North 5.8 mph - N/A   Overcast